TimeCDT,TemperatureF,Dew PointF,Humidity,Sea Level PressureIn,VisibilityMPH,Wind Direction,Wind SpeedMPH,Gust SpeedMPH,PrecipitationIn,Events,Conditions,WindDirDegrees,DateUTC
12:54 AM,55.0,39.9,57,29.97,9.0,NW,17.3,29.9,N/A,,Clear,320,2012-10-04 05:54:00
1:54 AM,53.1,39.9,61,29.99,10.0,NNW,20.7,26.5,N/A,,Clear,330,2012-10-04 06:54:00
2:54 AM,54.0,39.9,59,30.02,10.0,NW,15.0,24.2,N/A,,Scattered Clouds,310,2012-10-04 07:54:00
3:54 AM,51.1,42.1,71,30.09,10.0,WNW,19.6,26.5,0.00,,Mostly Cloudy,300,2012-10-04 08:54:00
4:24 AM,50.0,39.2,66,30.06,10.0,NNW,25.3,29.9,N/A,,Mostly Cloudy,330,2012-10-04 09:24:00
4:54 AM,48.9,39.9,71,30.06,10.0,NW,20.7,34.5,0.00,,Mostly Cloudy,310,2012-10-04 09:54:00
5:12 AM,48.2,37.4,66,30.11,10.0,NNW,16.1,32.2,N/A,,Scattered Clouds,330,2012-10-04 10:12:00
5:54 AM,48.0,37.0,66,30.13,10.0,NW,17.3,-,N/A,,Mostly Cloudy,320,2012-10-04 10:54:00
6:54 AM,46.9,36.0,66,30.14,10.0,NW,17.3,-,N/A,,Mostly Cloudy,320,2012-10-04 11:54:00
7:54 AM,45.0,35.1,68,30.16,10.0,NNW,13.8,24.2,N/A,,Mostly Cloudy,330,2012-10-04 12:54:00
8:54 AM,46.9,34.0,61,30.19,10.0,NW,24.2,28.8,N/A,,Mostly Cloudy,320,2012-10-04 13:54:00
9:54 AM,48.0,33.1,56,30.22,10.0,NNW,27.6,36.8,N/A,,Scattered Clouds,330,2012-10-04 14:54:00
10:54 AM,51.1,32.0,48,30.23,10.0,NNW,23.0,31.1,N/A,,Mostly Cloudy,340,2012-10-04 15:54:00
11:54 AM,53.1,32.0,45,30.25,10.0,NNW,17.3,25.3,N/A,,Mostly Cloudy,340,2012-10-04 16:54:00
12:54 PM,54.0,30.9,41,30.27,10.0,NW,18.4,21.9,N/A,,Mostly Cloudy,320,2012-10-04 17:54:00
1:54 PM,57.0,30.9,37,30.25,10.0,NNW,19.6,27.6,N/A,,Mostly Cloudy,330,2012-10-04 18:54:00
2:54 PM,57.9,30.0,35,30.24,10.0,NNW,18.4,28.8,N/A,,Partly Cloudy,340,2012-10-04 19:54:00
3:54 PM,57.9,28.9,33,30.23,10.0,NNW,20.7,27.6,N/A,,Clear,340,2012-10-04 20:54:00
4:54 PM,57.0,28.9,34,30.25,10.0,NW,19.6,-,N/A,,Clear,320,2012-10-04 21:54:00
5:54 PM,55.0,28.0,35,30.25,10.0,NNW,17.3,-,N/A,,Clear,340,2012-10-04 22:54:00
6:54 PM,51.1,28.0,41,30.26,10.0,NNW,10.4,-,N/A,,Clear,340,2012-10-04 23:54:00
7:54 PM,48.9,28.9,46,30.28,10.0,NW,9.2,-,N/A,,Clear,320,2012-10-05 00:54:00
8:54 PM,46.0,28.9,51,30.29,10.0,NW,5.8,-,N/A,,Clear,320,2012-10-05 01:54:00
9:54 PM,43.0,30.0,60,30.32,10.0,WNW,6.9,-,N/A,,Clear,300,2012-10-05 02:54:00
10:54 PM,39.9,28.9,65,30.33,10.0,NW,8.1,-,N/A,,Clear,310,2012-10-05 03:54:00
11:54 PM,39.0,28.0,65,30.33,10.0,NW,9.2,-,N/A,,Clear,310,2012-10-05 04:54:00